When you browse on this site, cookies collect data to enhance your experience and personalize the content and advertising you see.
Visit our Privacy Policy to learn more. By continuing to use the site, you agree to this use of cookies and data.
  • In France
  • List of Countries
  • For 7 days
  • Water Temperature
  • Satellite Maps
  • Weather Map
  • Weather Widgets
  • user-avatar
    Login

    Hourly Weather Gabrovo

    Today, 21 March, Thursday

    Time Temperature Precipitation Wind Pressure Humidity
    00:00 +7°C° 0 mm 1 mps 709 mmHg 85%
    01:00 +6°C° 0 mm 1 mps 709 mmHg 85%
    02:00 +5°C° 0 mm 1 mps 709 mmHg 86%
    03:00 +5°C° 0 mm 1 mps 709 mmHg 85%
    04:00 +5°C° 0 mm 1 mps 710 mmHg 84%
    05:00 +5°C° 0 mm 1 mps 710 mmHg 83%
    06:00 +5°C° 0 mm 1 mps 710 mmHg 80%
    07:00 +5°C° 0 mm 0 mps 711 mmHg 77%
    08:00 +6°C° 0 mm 0 mps 711 mmHg 73%
    09:00 +7°C° 0 mm 0 mps 711 mmHg 68%
    10:00 +9°C° 0 mm 0 mps 712 mmHg 63%
    11:00 +11°C° 0 mm 1 mps 712 mmHg 58%
    12:00 +11°C° 0 mm 1 mps 712 mmHg 57%
    13:00 +11°C° 0 mm 1 mps 711 mmHg 56%
    14:00 +12°C° 0 mm 1 mps 711 mmHg 55%
    15:00 +12°C° 0 mm 1 mps 711 mmHg 56%
    16:00 +12°C° 0 mm 1 mps 710 mmHg 57%
    17:00 +11°C° 0 mm 1 mps 710 mmHg 58%
    18:00 +11°C° 0 mm 1 mps 710 mmHg 62%
    19:00 +10°C° 0 mm 1 mps 710 mmHg 66%
    20:00 +9°C° 0 mm 1 mps 710 mmHg 70%
    21:00 +8°C° 0 mm 1 mps 710 mmHg 72%
    22:00 +8°C° 0 mm 1 mps 710 mmHg 73%
    23:00 +7°C° 0 mm 1 mps 711 mmHg 75%

    Tomorrow, 22 March, Friday

    Time Temperature Precipitation Wind Pressure Humidity
    00:00 +7°C° 0 mm 1 mps 710 mmHg 76%
    01:00 +6°C° 0 mm 1 mps 710 mmHg 78%
    02:00 +5°C° 0 mm 0 mps 710 mmHg 79%
    03:00 +4°C° 0 mm 0 mps 710 mmHg 81%
    04:00 +4°C° 0 mm 0 mps 710 mmHg 82%
    05:00 +3°C° 0 mm 0 mps 710 mmHg 84%
    06:00 +4°C° 0 mm 0 mps 710 mmHg 80%
    07:00 +6°C° 0 mm 1 mps 710 mmHg 77%
    08:00 +7°C° 0 mm 1 mps 710 mmHg 74%
    09:00 +9°C° 0 mm 1 mps 710 mmHg 67%
    10:00 +10°C° 0 mm 1 mps 710 mmHg 59%
    11:00 +12°C° 0 mm 1 mps 710 mmHg 52%
    12:00 +13°C° 0 mm 1 mps 710 mmHg 49%
    13:00 +14°C° 0 mm 1 mps 710 mmHg 46%
    14:00 +15°C° 0 mm 1 mps 709 mmHg 43%
    15:00 +14°C° 0 mm 1 mps 709 mmHg 44%
    16:00 +14°C° 0 mm 1 mps 709 mmHg 45%
    17:00 +14°C° 0 mm 1 mps 708 mmHg 46%
    18:00 +12°C° 0 mm 1 mps 708 mmHg 52%
    19:00 +11°C° 0 mm 1 mps 708 mmHg 57%
    20:00 +9°C° 0 mm 1 mps 708 mmHg 63%
    21:00 +9°C° 0 mm 1 mps 708 mmHg 64%
    22:00 +8°C° 0 mm 1 mps 708 mmHg 65%
    23:00 +8°C° 0 mm 1 mps 708 mmHg 66%

    Day after tomorrow, 23 March, Saturday

    Time Temperature Precipitation Wind Pressure Humidity
    00:00 +8°C° 0 mm 1 mps 708 mmHg 67%
    01:00 +7°C° 0 mm 1 mps 707 mmHg 68%
    02:00 +7°C° 0 mm 1 mps 707 mmHg 68%
    03:00 +7°C° 0 mm 1 mps 707 mmHg 69%
    04:00 +7°C° 0 mm 1 mps 707 mmHg 70%
    05:00 +6°C° 0 mm 1 mps 707 mmHg 71%
    06:00 +7°C° 0 mm 1 mps 707 mmHg 69%
    07:00 +8°C° 0 mm 1 mps 707 mmHg 68%
    08:00 +9°C° 0 mm 1 mps 707 mmHg 66%
    09:00 +10°C° 0 mm 1 mps 707 mmHg 61%
    10:00 +12°C° 0 mm 1 mps 707 mmHg 56%
    11:00 +13°C° 0 mm 1 mps 707 mmHg 50%
    12:00 +14°C° 0 mm 1 mps 707 mmHg 48%
    13:00 +15°C° 0 mm 1 mps 707 mmHg 46%
    14:00 +15°C° 0 mm 1 mps 707 mmHg 44%
    15:00 +15°C° 0 mm 1 mps 706 mmHg 46%
    16:00 +14°C° 0 mm 1 mps 706 mmHg 47%
    17:00 +14°C° 0 mm 2 mps 705 mmHg 48%
    18:00 +12°C° 0 mm 2 mps 705 mmHg 57%
    19:00 +9°C° 0 mm 2 mps 705 mmHg 66%
    20:00 +7°C° 0 mm 2 mps 705 mmHg 75%
    21:00 +7°C° 0 mm 2 mps 705 mmHg 78%
    22:00 +7°C° 0 mm 1 mps 706 mmHg 81%
    23:00 +6°C° 0 mm 1 mps 706 mmHg 83%

    24 March, Sunday

    Time Temperature Precipitation Wind Pressure Humidity
    00:00 +6°C° 0 mm 1 mps 706 mmHg 82%
    01:00 +7°C° 0 mm 1 mps 706 mmHg 80%
    02:00 +7°C° 0 mm 1 mps 706 mmHg 78%
    03:00 +6°C° 0 mm 1 mps 706 mmHg 79%
    04:00 +6°C° 0 mm 1 mps 706 mmHg 80%
    05:00 +6°C° 0 mm 1 mps 705 mmHg 81%
    06:00 +5°C° 0 mm 0 mps 706 mmHg 78%
    07:00 +6°C° 0 mm 0 mps 706 mmHg 74%
    08:00 +6°C° 0 mm 0 mps 706 mmHg 71%
    09:00 +8°C° 0 mm 0 mps 706 mmHg 64%
    10:00 +10°C° 0 mm 0 mps 707 mmHg 57%
    11:00 +12°C° 0 mm 1 mps 707 mmHg 51%
    12:00 +13°C° 0 mm 1 mps 707 mmHg 47%
    13:00 +14°C° 0 mm 1 mps 706 mmHg 43%
    14:00 +15°C° 0 mm 1 mps 706 mmHg 39%
    15:00 +15°C° 0 mm 1 mps 705 mmHg 39%
    16:00 +14°C° 0 mm 1 mps 705 mmHg 39%
    17:00 +14°C° 0 mm 1 mps 705 mmHg 39%
    18:00 +12°C° 0 mm 1 mps 705 mmHg 45%
    19:00 +11°C° 0 mm 1 mps 704 mmHg 51%
    20:00 +9°C° 0 mm 1 mps 704 mmHg 56%
    21:00 +8°C° 0 mm 1 mps 704 mmHg 57%
    22:00 +7°C° 0 mm 1 mps 704 mmHg 58%
    23:00 +7°C° 0 mm 1 mps 704 mmHg 59%

    25 March, Monday

    Time Temperature Precipitation Wind Pressure Humidity
    00:00 +6°C° 0 mm 1 mps 704 mmHg 59%
    01:00 +6°C° 0 mm 1 mps 704 mmHg 59%
    02:00 +5°C° 0 mm 1 mps 703 mmHg 59%
    03:00 +5°C° 0 mm 1 mps 703 mmHg 60%
    04:00 +4°C° 0 mm 0 mps 703 mmHg 61%
    05:00 +4°C° 0 mm 0 mps 702 mmHg 62%
    06:00 +5°C° 0 mm 0 mps 702 mmHg 60%
    07:00 +6°C° 0 mm 0 mps 703 mmHg 58%
    08:00 +7°C° 0 mm 0 mps 703 mmHg 56%
    09:00 +10°C° 0 mm 1 mps 703 mmHg 50%
    10:00 +12°C° 0 mm 1 mps 703 mmHg 44%
    11:00 +14°C° 0 mm 1 mps 703 mmHg 38%
    12:00 +15°C° 0 mm 2 mps 702 mmHg 37%
    13:00 +16°C° 0 mm 2 mps 702 mmHg 36%
    14:00 +17°C° 0 mm 2 mps 701 mmHg 35%
    15:00 +16°C° 0 mm 2 mps 701 mmHg 38%
    16:00 +16°C° 0 mm 2 mps 701 mmHg 42%
    17:00 +16°C° 0 mm 2 mps 700 mmHg 45%
    18:00 +14°C° 0 mm 2 mps 700 mmHg 50%
    19:00 +12°C° 0 mm 2 mps 700 mmHg 55%
    20:00 +10°C° 0 mm 2 mps 700 mmHg 59%
    21:00 +9°C° 0 mm 2 mps 700 mmHg 61%
    22:00 +8°C° 0 mm 3 mps 700 mmHg 64%
    23:00 +8°C° 0 mm 3 mps 700 mmHg 66%

    26 March, Tuesday

    Time Temperature Precipitation Wind Pressure Humidity
    00:00 +7°C° 0 mm 3 mps 700 mmHg 65%
    01:00 +7°C° 0 mm 3 mps 700 mmHg 64%
    02:00 +5°C° 0 mm 3 mps 700 mmHg 63%
    03:00 +5°C° 0 mm 3 mps 700 mmHg 63%
    04:00 +4°C° 0 mm 3 mps 700 mmHg 63%
    05:00 +4°C° 0 mm 3 mps 700 mmHg 64%
    06:00 +4°C° 0 mm 3 mps 700 mmHg 63%
    07:00 +5°C° 0 mm 3 mps 700 mmHg 61%
    08:00 +5°C° 0 mm 3 mps 700 mmHg 60%
    09:00 +6°C° 0 mm 4 mps 700 mmHg 54%
    10:00 +7°C° 0 mm 4 mps 701 mmHg 47%
    11:00 +10°C° 0 mm 4 mps 701 mmHg 40%
    12:00 +10°C° 0 mm 4 mps 700 mmHg 38%
    13:00 +9°C° 0 mm 5 mps 700 mmHg 37%
    14:00 +10°C° 0 mm 5 mps 699 mmHg 36%
    15:00 +9°C° 0 mm 5 mps 699 mmHg 40%
    16:00 +8°C° 0 mm 5 mps 699 mmHg 44%
    17:00 +7°C° 0 mm 5 mps 698 mmHg 47%
    18:00 +6°C° 0 mm 4 mps 698 mmHg 50%
    19:00 +5°C° 0 mm 4 mps 698 mmHg 53%
    20:00 +3°C° 0 mm 3 mps 698 mmHg 56%
    21:00 +3°C° 0 mm 3 mps 698 mmHg 59%
    22:00 +2°C° 0 mm 3 mps 698 mmHg 61%
    23:00 +2°C° 0 mm 3 mps 698 mmHg 63%
    Show more